[[{"header":{"parameterUnit":"m.s-1","parameterCategory":1,"la1":30.2991,"la2":30.254,"lo1":-89.0895,"lo2":-89.0444,"dy":0.0017,"dx":0.0017,"nx":28,"ny":28,"refTime":"2024-04-28T03:00:00:Z","depth":0,"parameterNumber":2,"parameterNumberName":"U-component_of_WINDS"},"data":[0,0,0,0,0,0,0,0,0,0,0,0,0,0,0,0,0,0,0,0,0,0,0,0,0,0,0,0,0,0,0,0,0,0,0,0,0,0,0,0,0,0,0,0,0,0,0,0,0,0,0,0,0,0,0,0,0,0,-4.938,-4.938,0,-4.9381,-4.9381,-4.9381,-4.9339,-4.9338,-4.9337,-4.9336,-4.9338,-4.9339,-4.934,0,0,0,0,0,0,0,0,0,0,0,0,0,-4.9344,-4.9345,-4.938,-4.938,-4.938,-4.9381,-4.9381,-4.9381,-4.934,-4.9338,-4.9337,-4.9336,-4.9337,-4.9339,-4.934,0,0,0,0,0,0,0,0,0,0,0,0,0,-4.9354,-4.9345,-4.938,-4.9359,-4.9358,-4.9381,-4.9381,-4.9381,-4.934,-4.9338,-4.9337,-4.9335,-4.9337,-4.9338,-4.934,-4.9383,0,0,-4.9345,-4.9346,0,0,0,0,0,0,0,0,-4.9353,-4.9355,-4.9362,-4.9361,-4.9359,-4.9358,-4.9369,-4.9382,-4.934,-4.9347,-4.9336,-4.9334,-4.9346,-4.9347,-4.935,-4.9383,-4.9383,-4.9345,-4.9346,-4.9347,-4.9347,0,0,0,0,0,0,0,-4.9353,-4.9355,-4.938,-4.9363,-4.936,-4.9351,-4.935,-4.9371,-4.9356,-4.9346,-4.9343,-4.9344,-4.9345,-4.9349,-4.935,-4.9383,-4.9345,-4.9346,-4.9347,-4.9348,-4.9452,-4.9453,0,0,0,0,0,0,-4.9355,-4.9355,-4.938,-4.938,-4.9352,-4.9353,-4.9352,-4.936,-4.9355,-4.9353,-4.9345,-4.9342,-4.9347,-4.9348,-4.935,-4.9399,-4.9347,-4.9348,-4.9349,-4.945,-4.9452,-4.9454,0,0,0,0,0,0,-4.9354,-4.9357,-4.938,-4.9367,-4.9369,-4.9355,-4.9364,-4.9361,-4.9365,-4.9354,-4.9352,-4.9352,-4.9346,-4.9348,-4.9375,-4.9399,-4.9349,-4.935,-4.9448,-4.9451,-4.9453,-4.9498,0,0,0,0,0,0,-4.9353,-4.9357,-4.9373,-4.9367,-4.937,-4.9405,-4.9366,-4.9362,-4.9368,-4.9364,-4.936,-4.9358,-4.9345,-4.9373,-4.9377,-4.94,-4.9352,-4.9446,-4.9449,-4.9452,-4.9494,-4.9502,-4.9509,0,0,0,0,0,-4.9352,-4.9385,-4.9374,-4.9377,-4.9389,-4.9406,-4.9407,-4.9391,-4.937,-4.9386,-4.9379,-4.9358,-4.9397,-4.9376,-4.938,-4.9404,-4.9444,-4.9448,-4.9452,-4.9491,-4.9501,-4.9509,0,0,0,0,0,0,-4.9393,-4.9384,-4.9371,-4.9404,-4.9406,-4.9399,-4.9418,-4.9401,-4.9409,-4.9405,-4.9385,-4.9384,-4.9415,-4.9413,-4.939,-4.9446,-4.9417,-4.9422,-4.9445,-4.9454,-4.9461,-4.9459,-4.9353,0,0,0,0,0,-4.9407,-4.9421,-4.9413,-4.9442,-4.9444,-4.9431,-4.9438,-4.9426,-4.9427,-4.9428,-4.9423,-4.9426,-4.9438,-4.9447,-4.9458,-4.9496,-4.9494,-4.9514,-4.9522,-4.9527,-4.9531,-4.955,-4.9559,-4.9467,-4.9467,-4.9467,0,0,-4.9433,-4.943,-4.944,-4.9451,-4.9451,-4.9466,-4.9432,-4.945,-4.9461,-4.9431,-4.9455,-4.9453,-4.9454,-4.9487,-4.9501,-4.9486,-4.9557,-4.9533,-4.9537,-4.9537,-4.9555,-4.9564,-4.9572,-4.947,-4.947,-4.9469,0,0,-4.9489,-4.9489,-4.9513,-4.9515,-4.9516,-4.9508,-4.9514,-4.951,-4.9507,-4.9532,-4.9509,-4.9524,-4.9546,-4.9547,-4.9551,-4.9612,-4.9592,-4.9617,-4.9652,-4.9671,-4.9678,-4.9685,-4.9704,-4.9712,-4.9621,-4.9621,-4.9621,0,-4.9522,-4.9544,-4.9528,-4.9547,-4.9552,-4.9527,-4.9551,-4.9554,-4.9559,-4.9563,-4.9547,-4.9575,-4.9574,-4.9607,-4.9622,-4.9627,-4.9632,-4.9614,-4.9679,-4.9685,-4.969,-4.9709,-4.9717,-4.9624,-4.9623,-4.9623,-4.9623,0,-4.9583,-4.96,-4.9619,-4.9625,-4.9633,-4.9655,-4.9643,-4.9653,-4.9641,-4.9635,-4.9661,-4.9661,-4.9671,-4.9679,-4.9667,-4.971,-4.97,-4.9682,-4.9651,-4.9702,-4.9719,-4.9726,-4.9627,-4.9626,-4.9626,-4.9625,0,0,-4.9661,-4.966,-4.9667,-4.9669,-4.967,-4.9682,-4.9705,-4.9715,-4.9723,-4.9729,-4.9746,-4.9767,-4.9751,-4.9755,-4.9744,-4.9762,-4.9808,-4.9741,-4.9741,-4.9752,-4.9854,-4.9866,-4.9874,-4.9797,-4.9799,-4.98,-4.9853,0,-4.9714,-4.9749,-4.9737,-4.9774,-4.9788,-4.9766,-4.9785,-4.9789,-4.9784,-4.9797,-4.9793,-4.9807,-4.9784,-4.9787,-4.9804,-4.9799,-4.9828,-4.9796,-4.9812,-4.9813,-4.9809,-4.9884,-4.9896,-4.9946,-4.986,-4.9861,-4.9862,0,-4.9778,-4.9787,-4.9825,-4.9824,-4.983,-4.9847,-4.9856,-4.9869,-4.9872,-4.9868,-4.9875,-4.9861,-4.9883,-4.9856,-4.9886,-4.9864,-4.9871,-4.987,-4.9871,-4.9869,-4.9838,-4.9881,-4.9962,-4.9968,-4.9873,-4.9872,-4.9871,0,-4.9829,-4.985,-4.9875,-4.9878,-4.9879,-4.9891,-4.9892,-4.9895,-4.9902,-4.9911,-4.9915,-4.9927,-4.9932,-4.9942,-4.9932,-4.9913,-4.9963,-4.9935,-4.9959,-4.9959,-4.9967,-4.9966,-5.0047,-4.9977,-4.9977,-4.9977,-4.9977,0,-4.9887,-4.991,-4.9898,-4.9913,-4.994,-4.9927,-4.9953,-4.9952,-4.9955,-4.997,-4.9953,-4.9967,-4.9954,-4.9968,-4.9961,-4.9986,-4.9989,-4.9986,-4.9983,-4.9986,-4.9986,-4.9987,-4.9982,-4.9979,-4.9979,-4.9978,-4.9978,0,-4.9945,-4.9938,-4.9964,-4.9963,-4.9964,-4.9983,-4.9983,-4.9997,-4.9993,-5.0013,-5.0016,-5.001,-5.0025,-5.0017,-5.0033,-5.0029,-5.0061,-5.0055,-5.0059,-5.0056,-5.008,-5.0077,-5.0162,-5.0172,-5.0098,-5.0099,-5.01,0,-4.9981,-4.9999,-5.0,-5.0009,-5.0011,-5.0026,-5.0034,-5.0023,-5.0032,-5.0039,-5.0053,-5.0067,-5.0077,-5.0103,-5.01,-5.0112,-5.0105,-5.0134,-5.0106,-5.0108,-5.0102,-5.01,-5.0101,-5.0138,-5.0139,-5.014,-5.014,0,-5.0045,-5.0041,-5.0052,-5.0064,-5.0073,-5.0082,-5.0088,-5.0097,-5.0086,-5.0098,-5.0113,-5.0121,-5.0139,-5.0152,-5.0164,-5.0165,-5.0151,-5.015,-5.0156,-5.0157,-5.0158,-5.0155,-5.0071,-5.0147,-5.0146,-5.0146,-5.0146,-5.0145,-5.0091,-5.0106,-5.011,-5.0123,-5.0128,-5.0135,-5.0149,-5.0147,-5.016,-5.0172,-5.0166,-5.0184,-5.0189,-5.0203,-5.0207,-5.0221,-5.0209,-5.0218,-5.022,-5.0222,-5.0224,-5.0158,-5.0224,-5.0223,-5.0223,-5.0223,-5.0223,0,-5.0152,-5.0154,-5.0167,-5.0177,-5.0189,-5.0176,-5.0184,-5.0194,-5.021,-5.0216,-5.0227,-5.0245,-5.026,-5.0259,-5.0272,-5.0284,-5.0278,-5.0287,-5.0285,-5.0285,-5.0235,-5.0227,-5.0292,-5.0292,-5.0292,-5.0292,-5.0292,-5.0292,-5.0185,-5.0209,-5.0206,-5.0232,-5.0234,-5.0252,-5.0257,-5.0264,-5.0269,-5.029,-5.0301,-5.0301,-5.0305,-5.0318,-5.0331,-5.0331,-5.0335,-5.0347,-5.0344,-5.0296,-5.0289,-5.0282,-5.0275,-5.0349,-5.0349,-5.0393,-5.0393,-5.0393]},{"header":{"parameterUnit":"m.s-1","parameterCategory":1,"la1":30.2991,"la2":30.254,"lo1":-89.0895,"lo2":-89.0444,"dy":0.0017,"dx":0.0017,"nx":28,"ny":28,"refTime":"2024-04-28T03:00:00:Z","depth":0,"parameterNumber":3,"parameterNumberName":"V-component_of_WINDS"},"data":[0,0,0,0,0,0,0,0,0,0,0,0,0,0,0,0,0,0,0,0,0,0,0,0,0,0,0,0,0,0,0,0,0,0,0,0,0,0,0,0,0,0,0,0,0,0,0,0,0,0,0,0,0,0,0,0,0,0,5.241,5.241,0,5.249,5.2491,5.2492,5.2557,5.2557,5.2558,5.2559,5.2637,5.2638,5.2639,0,0,0,0,0,0,0,0,0,0,0,0,0,5.2309,5.231,5.2409,5.2411,5.2412,5.249,5.2491,5.2492,5.2557,5.2558,5.2558,5.2559,5.2636,5.2638,5.2639,0,0,0,0,0,0,0,0,0,0,0,0,0,5.2367,5.2311,5.2409,5.2453,5.2458,5.249,5.2491,5.2493,5.2557,5.2558,5.2559,5.2559,5.2635,5.2638,5.264,5.2633,0,0,5.2646,5.2647,0,0,0,0,0,0,0,0,5.2364,5.2371,5.2446,5.245,5.2456,5.2515,5.2484,5.254,5.2556,5.2519,5.2559,5.256,5.2595,5.26,5.2613,5.2637,5.264,5.2647,5.2648,5.2649,5.2649,0,0,0,0,0,0,0,5.236,5.2368,5.2441,5.2447,5.2453,5.2468,5.2478,5.2495,5.255,5.2522,5.2527,5.2536,5.2598,5.2611,5.2615,5.2641,5.2646,5.2648,5.265,5.2651,5.2667,5.2666,0,0,0,0,0,0,5.2349,5.2364,5.2439,5.2444,5.2411,5.2469,5.248,5.2495,5.255,5.256,5.2535,5.2539,5.2607,5.2613,5.2618,5.2617,5.2649,5.2651,5.2652,5.2668,5.2667,5.2666,0,0,0,0,0,0,5.2347,5.2355,5.2436,5.2405,5.2417,5.247,5.2486,5.2496,5.2509,5.256,5.257,5.2539,5.2608,5.2615,5.263,5.262,5.2652,5.2654,5.2669,5.2667,5.2666,5.2612,0,0,0,0,0,0,5.2344,5.2354,5.2352,5.2405,5.2418,5.2446,5.2485,5.2497,5.2513,5.2519,5.2566,5.2575,5.2609,5.2627,5.2632,5.2624,5.2655,5.267,5.2668,5.2667,5.2615,5.2609,5.2604,0,0,0,0,0,5.234,5.2332,5.2352,5.2361,5.2417,5.2446,5.2453,5.2494,5.2512,5.2511,5.2544,5.2573,5.262,5.2628,5.2635,5.2627,5.2671,5.2669,5.2667,5.2617,5.261,5.2604,0,0,0,0,0,0,5.2274,5.2339,5.2362,5.2371,5.2403,5.2456,5.2456,5.2485,5.251,5.2514,5.2563,5.2573,5.2583,5.2606,5.2613,5.2625,5.265,5.2649,5.2609,5.2603,5.2598,5.2592,5.2657,0,0,0,0,0,5.2261,5.228,5.2335,5.2338,5.2353,5.2402,5.2415,5.2445,5.2479,5.2492,5.2526,5.2556,5.2579,5.2592,5.2615,5.2618,5.2631,5.2617,5.2611,5.2606,5.2605,5.2612,5.2607,5.2659,5.2659,5.2659,0,0,5.2234,5.2272,5.228,5.2326,5.2354,5.2372,5.2412,5.2429,5.2443,5.2494,5.2511,5.2537,5.2575,5.2585,5.259,5.2604,5.2594,5.2604,5.26,5.2601,5.2609,5.2604,5.2599,5.2658,5.2658,5.2658,0,0,5.2193,5.2223,5.2231,5.2259,5.2301,5.2335,5.2336,5.2386,5.2407,5.2425,5.2465,5.2481,5.2518,5.2544,5.2562,5.2535,5.2563,5.2541,5.2512,5.2518,5.2514,5.251,5.2503,5.2499,5.254,5.254,5.2539,0,5.2153,5.2184,5.223,5.2246,5.2265,5.2315,5.2323,5.2347,5.2394,5.2407,5.2422,5.2471,5.2499,5.2518,5.2512,5.2524,5.2528,5.2536,5.2511,5.2508,5.2505,5.2498,5.2495,5.2537,5.2537,5.2537,5.2538,0,5.2133,5.2154,5.2154,5.2202,5.2221,5.2232,5.2281,5.2295,5.2323,5.2355,5.2374,5.2411,5.2443,5.2449,5.2476,5.2472,5.248,5.2502,5.2528,5.2497,5.2491,5.2489,5.2533,5.2534,5.2534,5.2535,0,0,5.2052,5.2128,5.2128,5.2151,5.2204,5.222,5.2234,5.2268,5.228,5.2311,5.2325,5.2357,5.2379,5.2399,5.2429,5.2434,5.2413,5.2457,5.2458,5.2449,5.2414,5.2397,5.2394,5.2433,5.2432,5.2432,5.2411,0,5.2021,5.2052,5.2096,5.2111,5.2132,5.2181,5.2193,5.2227,5.2257,5.2278,5.2311,5.2333,5.236,5.2373,5.238,5.2414,5.2407,5.2416,5.2446,5.2446,5.2436,5.239,5.2373,5.2351,5.2409,5.2409,5.2409,0,5.1989,5.2021,5.2039,5.2093,5.2104,5.2114,5.2151,5.217,5.221,5.2232,5.2256,5.229,5.2308,5.2331,5.2357,5.2362,5.2377,5.2396,5.2396,5.2401,5.2426,5.2395,5.2345,5.2342,5.2405,5.2405,5.2406,0,5.1931,5.1978,5.1996,5.2014,5.2077,5.2084,5.211,5.215,5.2169,5.2201,5.2214,5.2246,5.2263,5.2287,5.2329,5.2342,5.2351,5.2377,5.237,5.2369,5.237,5.2369,5.2322,5.2377,5.2377,5.2377,5.2377,0,5.1892,5.1902,5.1971,5.1982,5.1995,5.2045,5.2056,5.2087,5.2123,5.2141,5.2184,5.2199,5.2253,5.2275,5.2308,5.2325,5.2332,5.2351,5.2359,5.2348,5.2345,5.2358,5.2361,5.2376,5.2377,5.2377,5.2377,0,5.1829,5.1876,5.1899,5.1958,5.1973,5.198,5.203,5.2042,5.2076,5.2099,5.2107,5.2159,5.2188,5.2232,5.2272,5.2294,5.2307,5.232,5.2294,5.23,5.2291,5.2291,5.2251,5.2249,5.2303,5.2303,5.2302,0,5.1802,5.1811,5.1872,5.1888,5.1914,5.1939,5.196,5.201,5.2029,5.2076,5.2083,5.2116,5.2144,5.2187,5.2228,5.226,5.2276,5.226,5.2281,5.2269,5.2278,5.2277,5.2279,5.2255,5.2254,5.2253,5.2253,0,5.175,5.1773,5.1802,5.184,5.1864,5.1895,5.1929,5.1939,5.1997,5.2016,5.2047,5.207,5.2113,5.2145,5.2183,5.2209,5.2241,5.2246,5.2246,5.2235,5.222,5.223,5.2282,5.2246,5.2247,5.2247,5.2248,5.2248,5.1705,5.1717,5.1763,5.1794,5.1825,5.1856,5.1872,5.191,5.1937,5.1978,5.2005,5.2035,5.2076,5.2131,5.2156,5.218,5.2193,5.2193,5.2193,5.2193,5.2189,5.2216,5.2186,5.2187,5.2187,5.2187,5.2187,0,5.1657,5.1689,5.1718,5.1765,5.179,5.182,5.1859,5.1878,5.1904,5.1941,5.1969,5.2006,5.2038,5.2083,5.2118,5.2128,5.2144,5.2136,5.2136,5.2142,5.2174,5.2171,5.2123,5.2123,5.2123,5.2123,5.2123,5.2123,5.1635,5.1657,5.1686,5.1725,5.1757,5.1789,5.1809,5.1838,5.1868,5.1908,5.1936,5.1966,5.2006,5.2045,5.2076,5.2088,5.21,5.2088,5.2104,5.2134,5.214,5.2145,5.2143,5.2089,5.2089,5.2071,5.2071,5.207]}]]